When you browse on this site, cookies collect data to enhance your experience and personalize the content and advertising you see.
Visit our Privacy Policy to learn more. By continuing to use the site, you agree to this use of cookies and data.
  • In Österreich
  • Länderverzeichnis
  • Für 7 Tage
  • Wassertemperatur
  • Wetterkarte
  • News
  • Widgets
  • user-avatar
    Anmelden

    Stündliche Wetter Kashtelu-Branku

    Heute, 17 September, Dienstag

    Zeit Temperatur Niederschläge Wind Luftdruck Luftfeuchtigkeit
    00:00 +19°C° 0 mm 0 m/S 731 mmHg 62%
    01:00 +19°C° 0 mm 0 m/S 731 mmHg 63%
    02:00 +19°C° 0 mm 0 m/S 731 mmHg 64%
    03:00 +19°C° 0 mm 0 m/S 730 mmHg 66%
    04:00 +18°C° 0 mm 0 m/S 730 mmHg 67%
    05:00 +20°C° 0 mm 1 m/S 730 mmHg 68%
    06:00 +18°C° 0 mm 0 m/S 731 mmHg 72%
    07:00 +22°C° 0.2 mm 1 m/S 731 mmHg 66%
    08:00 +24°C° 0.2 mm 1 m/S 731 mmHg 59%
    09:00 +26°C° 0.2 mm 2 m/S 731 mmHg 53%
    10:00 +27°C° 0.1 mm 2 m/S 731 mmHg 47%
    11:00 +29°C° 0.1 mm 2 m/S 731 mmHg 41%
    12:00 +31°C° 0 mm 2 m/S 731 mmHg 35%
    13:00 +31°C° 0 mm 2 m/S 730 mmHg 32%
    14:00 +32°C° 0 mm 2 m/S 730 mmHg 30%
    15:00 +32°C° 0 mm 2 m/S 729 mmHg 28%
    16:00 +31°C° 0 mm 2 m/S 729 mmHg 31%
    17:00 +30°C° 0 mm 2 m/S 729 mmHg 33%
    18:00 +29°C° 0 mm 1 m/S 729 mmHg 36%
    19:00 +27°C° 0.1 mm 1 m/S 729 mmHg 45%
    20:00 +24°C° 0.1 mm 1 m/S 729 mmHg 53%
    21:00 +22°C° 0.1 mm 1 m/S 729 mmHg 62%
    22:00 +22°C° 0 mm 1 m/S 729 mmHg 64%
    23:00 +21°C° 0 mm 1 m/S 729 mmHg 67%

    Morgen, 18 September, Mittwoch

    Zeit Temperatur Niederschläge Wind Luftdruck Luftfeuchtigkeit
    00:00 +21°C° 0 mm 1 m/S 729 mmHg 69%
    01:00 +20°C° 0 mm 1 m/S 729 mmHg 71%
    02:00 +20°C° 0 mm 1 m/S 729 mmHg 72%
    03:00 +17°C° 0 mm 0 m/S 729 mmHg 73%
    04:00 +17°C° 0 mm 0 m/S 729 mmHg 75%
    05:00 +17°C° 0 mm 0 m/S 729 mmHg 77%
    06:00 +16°C° 0 mm 0 m/S 729 mmHg 78%
    07:00 +18°C° 0 mm 0 m/S 730 mmHg 70%
    08:00 +21°C° 0 mm 0 m/S 730 mmHg 61%
    09:00 +23°C° 0 mm 0 m/S 731 mmHg 53%
    10:00 +27°C° 0 mm 1 m/S 731 mmHg 47%
    11:00 +29°C° 0 mm 1 m/S 731 mmHg 41%
    12:00 +31°C° 0 mm 1 m/S 731 mmHg 35%
    13:00 +31°C° 0 mm 1 m/S 731 mmHg 33%
    14:00 +32°C° 0 mm 1 m/S 730 mmHg 31%
    15:00 +32°C° 0 mm 2 m/S 730 mmHg 29%
    16:00 +31°C° 0 mm 2 m/S 730 mmHg 33%
    17:00 +29°C° 0 mm 2 m/S 730 mmHg 38%
    18:00 +28°C° 0 mm 2 m/S 730 mmHg 42%
    19:00 +26°C° 0 mm 2 m/S 730 mmHg 51%
    20:00 +24°C° 0 mm 2 m/S 730 mmHg 60%
    21:00 +21°C° 0 mm 2 m/S 731 mmHg 69%
    22:00 +21°C° 0 mm 1 m/S 731 mmHg 71%
    23:00 +20°C° 0 mm 1 m/S 731 mmHg 73%

    übermorgen, 19 September, Donnerstag

    Zeit Temperatur Niederschläge Wind Luftdruck Luftfeuchtigkeit
    00:00 +20°C° 0 mm 1 m/S 731 mmHg 75%
    01:00 +19°C° 0 mm 1 m/S 730 mmHg 76%
    02:00 +19°C° 0 mm 1 m/S 730 mmHg 77%
    03:00 +19°C° 0 mm 1 m/S 730 mmHg 78%
    04:00 +19°C° 0 mm 1 m/S 730 mmHg 79%
    05:00 +18°C° 0 mm 1 m/S 730 mmHg 80%
    06:00 +18°C° 0 mm 1 m/S 730 mmHg 80%
    07:00 +20°C° 0 mm 1 m/S 730 mmHg 72%
    08:00 +22°C° 0 mm 1 m/S 731 mmHg 63%
    09:00 +24°C° 0 mm 1 m/S 731 mmHg 54%
    10:00 +26°C° 0 mm 1 m/S 731 mmHg 46%
    11:00 +28°C° 0 mm 2 m/S 731 mmHg 39%
    12:00 +30°C° 0 mm 2 m/S 731 mmHg 31%
    13:00 +30°C° 0 mm 2 m/S 731 mmHg 29%
    14:00 +31°C° 0 mm 3 m/S 730 mmHg 27%
    15:00 +31°C° 0 mm 3 m/S 730 mmHg 25%
    16:00 +30°C° 0 mm 3 m/S 730 mmHg 29%
    17:00 +28°C° 0 mm 3 m/S 730 mmHg 34%
    18:00 +27°C° 0 mm 3 m/S 729 mmHg 38%
    19:00 +25°C° 0 mm 2 m/S 730 mmHg 47%
    20:00 +23°C° 0 mm 2 m/S 730 mmHg 56%
    21:00 +20°C° 0 mm 2 m/S 730 mmHg 66%
    22:00 +20°C° 0 mm 2 m/S 730 mmHg 68%
    23:00 +20°C° 0 mm 1 m/S 729 mmHg 70%

    20 September, Freitag

    Zeit Temperatur Niederschläge Wind Luftdruck Luftfeuchtigkeit
    00:00 +20°C° 0 mm 1 m/S 729 mmHg 72%
    01:00 +20°C° 0 mm 1 m/S 729 mmHg 72%
    02:00 +19°C° 0 mm 1 m/S 729 mmHg 73%
    03:00 +19°C° 0 mm 1 m/S 729 mmHg 73%
    04:00 +18°C° 0 mm 1 m/S 728 mmHg 76%
    05:00 +18°C° 0 mm 1 m/S 728 mmHg 79%
    06:00 +16°C° 0 mm 1 m/S 728 mmHg 82%
    07:00 +19°C° 0 mm 1 m/S 728 mmHg 73%
    08:00 +21°C° 0 mm 1 m/S 728 mmHg 63%
    09:00 +23°C° 0 mm 1 m/S 729 mmHg 54%
    10:00 +23°C° 0 mm 1 m/S 729 mmHg 52%
    11:00 +24°C° 0 mm 2 m/S 728 mmHg 51%
    12:00 +24°C° 0 mm 2 m/S 728 mmHg 50%
    13:00 +24°C° 0 mm 2 m/S 728 mmHg 49%
    14:00 +24°C° 0 mm 2 m/S 728 mmHg 48%
    15:00 +24°C° 0 mm 2 m/S 728 mmHg 47%
    16:00 +24°C° 0 mm 2 m/S 728 mmHg 48%
    17:00 +24°C° 0 mm 2 m/S 727 mmHg 49%
    18:00 +23°C° 0 mm 1 m/S 727 mmHg 50%
    19:00 +22°C° 0 mm 1 m/S 728 mmHg 57%
    20:00 +20°C° 0 mm 1 m/S 728 mmHg 64%
    21:00 +19°C° 0 mm 1 m/S 728 mmHg 71%
    22:00 +18°C° 0 mm 1 m/S 728 mmHg 75%
    23:00 +18°C° 0 mm 1 m/S 727 mmHg 78%

    21 September, Samstag

    Zeit Temperatur Niederschläge Wind Luftdruck Luftfeuchtigkeit
    00:00 +16°C° 0 mm 1 m/S 727 mmHg 82%
    01:00 +15°C° 0 mm 1 m/S 727 mmHg 84%
    02:00 +15°C° 0 mm 1 m/S 727 mmHg 87%
    03:00 +15°C° 0 mm 1 m/S 727 mmHg 90%
    04:00 +14°C° 0 mm 1 m/S 726 mmHg 91%
    05:00 +13°C° 0 mm 0 m/S 726 mmHg 93%
    06:00 +13°C° 0 mm 0 m/S 726 mmHg 94%
    07:00 +15°C° 0 mm 1 m/S 727 mmHg 88%
    08:00 +18°C° 0 mm 1 m/S 727 mmHg 81%
    09:00 +19°C° 0 mm 1 m/S 727 mmHg 74%
    10:00 +19°C° 0.1 mm 2 m/S 727 mmHg 73%
    11:00 +19°C° 0.1 mm 2 m/S 727 mmHg 71%
    12:00 +20°C° 0.1 mm 2 m/S 727 mmHg 69%
    13:00 +19°C° 0.7 mm 2 m/S 727 mmHg 74%
    14:00 +19°C° 0.7 mm 3 m/S 726 mmHg 78%
    15:00 +18°C° 0.7 mm 3 m/S 726 mmHg 83%
    16:00 +18°C° 1 mm 3 m/S 726 mmHg 85%
    17:00 +18°C° 1 mm 3 m/S 726 mmHg 87%
    18:00 +18°C° 1 mm 3 m/S 726 mmHg 88%
    19:00 +18°C° 1.1 mm 3 m/S 727 mmHg 90%
    20:00 +18°C° 1.1 mm 3 m/S 727 mmHg 91%
    21:00 +18°C° 1.1 mm 3 m/S 728 mmHg 92%
    22:00 +18°C° 0.2 mm 3 m/S 728 mmHg 92%
    23:00 +17°C° 0.2 mm 2 m/S 728 mmHg 91%

    22 September, Sonntag

    Zeit Temperatur Niederschläge Wind Luftdruck Luftfeuchtigkeit
    00:00 +16°C° 0.2 mm 2 m/S 728 mmHg 90%
    01:00 +15°C° 0 mm 2 m/S 728 mmHg 91%
    02:00 +14°C° 0 mm 2 m/S 728 mmHg 92%
    03:00 +13°C° 0 mm 2 m/S 728 mmHg 92%
    04:00 +13°C° 0 mm 2 m/S 729 mmHg 93%
    05:00 +13°C° 0 mm 2 m/S 729 mmHg 93%
    06:00 +13°C° 0 mm 1 m/S 729 mmHg 93%
    07:00 +15°C° 0 mm 2 m/S 730 mmHg 87%
    08:00 +16°C° 0 mm 2 m/S 731 mmHg 80%
    09:00 +17°C° 0 mm 2 m/S 731 mmHg 74%
    10:00 +19°C° 0 mm 2 m/S 731 mmHg 62%
    11:00 +21°C° 0 mm 2 m/S 732 mmHg 51%
    12:00 +23°C° 0 mm 2 m/S 732 mmHg 40%
    13:00 +24°C° 0 mm 3 m/S 732 mmHg 37%
    14:00 +24°C° 0 mm 3 m/S 731 mmHg 34%
    15:00 +25°C° 0 mm 4 m/S 731 mmHg 31%
    16:00 +24°C° 0 mm 3 m/S 731 mmHg 35%
    17:00 +21°C° 0 mm 3 m/S 732 mmHg 40%
    18:00 +20°C° 0 mm 3 m/S 732 mmHg 44%
    19:00 +19°C° 0 mm 3 m/S 732 mmHg 50%
    20:00 +17°C° 0 mm 2 m/S 733 mmHg 56%
    21:00 +15°C° 0 mm 2 m/S 733 mmHg 61%
    22:00 +15°C° 0 mm 1 m/S 733 mmHg 63%
    23:00 +15°C° 0 mm 1 m/S 733 mmHg 65%
    Mehr zeigen